Time,TemperatureF,DewpointF,PressureIn,WindDirection,WindDirectionDegrees,WindSpeedMPH,WindSpeedGustMPH,Humidity,HourlyPrecipIn,Conditions,Clouds,dailyrainin,SolarRadiationWatts/m^2,SoftwareType,DateUTC
2013-01-21 00:03:00,58.5,55.0,30.11,SE,128,4.0,4.0,88,0.00,CLR,SKC,0.00,0.0,WeatherDisplay:10.37,2013-01-21 06:03:00,
2013-01-21 00:08:00,58.5,55.0,30.11,ESE,121,3.5,3.5,88,0.00,CLR,SKC,0.00,0.0,WeatherDisplay:10.37,2013-01-21 06:08:00,
2013-01-21 00:13:00,58.6,55.1,30.11,ESE,111,4.6,4.6,88,0.00,CLR,SKC,0.00,0.0,WeatherDisplay:10.37,2013-01-21 06:13:00,
2013-01-21 00:18:00,58.7,55.2,30.11,ESE,123,3.5,3.5,88,0.00,CLR,SKC,0.00,0.0,WeatherDisplay:10.37,2013-01-21 06:18:00,
2013-01-21 00:24:00,58.8,54.9,30.11,ESE,115,3.5,3.5,87,0.00,CLR,SKC,0.00,0.0,WeatherDisplay:10.37,2013-01-21 06:24:00,
2013-01-21 00:29:00,58.7,55.2,30.11,ESE,120,3.5,3.5,88,0.00,CLR,SKC,0.00,0.0,WeatherDisplay:10.37,2013-01-21 06:29:00,
2013-01-21 00:34:00,58.7,55.2,30.11,ESE,115,3.5,3.5,88,0.00,CLR,SKC,0.00,0.0,WeatherDisplay:10.37,2013-01-21 06:34:00,
2013-01-21 00:39:00,58.6,55.1,30.11,ESE,113,3.5,3.5,88,0.00,CLR,SKC,0.00,0.0,WeatherDisplay:10.37,2013-01-21 06:39:00,
2013-01-21 00:44:00,58.6,55.1,30.11,ESE,119,3.5,3.5,88,0.00,CLR,SKC,0.00,0.0,WeatherDisplay:10.37,2013-01-21 06:44:00,
2013-01-21 00:49:00,58.6,55.1,30.11,SE,125,3.0,3.0,88,0.00,CLR,SKC,0.00,0.0,WeatherDisplay:10.37,2013-01-21 06:49:00,
2013-01-21 00:54:00,58.7,55.2,30.11,SE,137,3.5,3.5,88,0.00,CLR,SKC,0.00,0.0,WeatherDisplay:10.37,2013-01-21 06:54:00,
2013-01-21 00:59:00,58.8,55.3,30.11,SSE,152,3.5,3.5,88,0.00,CLR,SKC,0.00,0.0,WeatherDisplay:10.37,2013-01-21 06:59:00,
2013-01-21 01:04:00,58.9,55.0,30.11,SE,136,3.5,3.5,87,0.00,CLR,SKC,0.00,0.0,WeatherDisplay:10.37,2013-01-21 07:04:00,
2013-01-21 01:09:00,59.0,55.1,30.11,SE,132,3.5,3.5,87,0.00,CLR,SKC,0.00,0.0,WeatherDisplay:10.37,2013-01-21 07:09:00,
2013-01-21 01:14:00,59.0,55.1,30.11,SE,131,3.5,3.5,87,0.00,CLR,SKC,0.00,0.0,WeatherDisplay:10.37,2013-01-21 07:14:00,
2013-01-21 01:19:00,59.0,55.1,30.11,SE,131,2.3,2.3,87,0.00,CLR,SKC,0.00,0.0,WeatherDisplay:10.37,2013-01-21 07:19:00,
2013-01-21 01:24:00,59.0,55.4,30.11,SE,130,1.1,1.1,88,0.00,CLR,SKC,0.00,0.0,WeatherDisplay:10.37,2013-01-21 07:24:00,
2013-01-21 01:29:00,59.0,55.4,30.11,SE,130,2.3,2.3,88,0.00,CLR,SKC,0.00,0.0,WeatherDisplay:10.37,2013-01-21 07:29:00,
2013-01-21 01:34:00,58.9,55.4,30.11,SE,130,1.1,1.1,88,0.00,CLR,SKC,0.00,0.0,WeatherDisplay:10.37,2013-01-21 07:34:00,
2013-01-21 01:39:00,58.9,55.4,30.11,SE,130,0.0,0.0,88,0.00,CLR,SKC,0.00,0.0,WeatherDisplay:10.37,2013-01-21 07:39:00,
2013-01-21 01:44:00,58.8,55.3,30.10,SE,130,0.0,0.0,88,0.00,CLR,SKC,0.00,0.0,WeatherDisplay:10.37,2013-01-21 07:44:00,
2013-01-21 01:49:00,58.6,55.1,30.10,SE,130,0.0,0.0,88,0.00,CLR,SKC,0.00,0.0,WeatherDisplay:10.37,2013-01-21 07:49:00,
2013-01-21 01:54:00,58.5,55.0,30.10,SE,130,0.0,0.0,88,0.00,CLR,SKC,0.00,0.0,WeatherDisplay:10.37,2013-01-21 07:54:00,
2013-01-21 01:59:00,58.4,55.2,30.10,SE,130,0.0,0.0,89,0.00,CLR,SKC,0.00,0.0,WeatherDisplay:10.37,2013-01-21 07:59:00,
2013-01-21 02:04:00,58.2,55.0,30.10,SE,130,0.0,0.0,89,0.00,CLR,SKC,0.00,0.0,WeatherDisplay:10.37,2013-01-21 08:04:00,
2013-01-21 02:09:00,58.0,54.8,30.10,SE,130,0.0,0.0,89,0.00,CLR,SKC,0.00,0.0,WeatherDisplay:10.37,2013-01-21 08:09:00,
2013-01-21 02:14:00,58.0,55.1,30.10,SE,130,0.0,0.0,90,0.00,CLR,SKC,0.00,0.0,WeatherDisplay:10.37,2013-01-21 08:14:00,
2013-01-21 02:19:00,57.9,55.0,30.10,SE,130,0.0,0.0,90,0.00,CLR,SKC,0.00,0.0,WeatherDisplay:10.37,2013-01-21 08:19:00,
2013-01-21 02:24:00,57.8,54.9,30.10,SE,130,0.0,0.0,90,0.00,CLR,SKC,0.00,0.0,WeatherDisplay:10.37,2013-01-21 08:24:00,
2013-01-21 02:29:00,57.7,54.8,30.10,SE,130,0.0,0.0,90,0.00,CLR,SKC,0.00,0.0,WeatherDisplay:10.37,2013-01-21 08:29:00,
2013-01-21 02:34:00,57.7,54.8,30.10,SE,130,0.0,0.0,90,0.00,CLR,SKC,0.00,0.0,WeatherDisplay:10.37,2013-01-21 08:34:00,
2013-01-21 02:39:00,57.6,54.7,30.10,SE,130,0.0,0.0,90,0.00,CLR,SKC,0.00,0.0,WeatherDisplay:10.37,2013-01-21 08:39:00,
2013-01-21 02:44:00,57.5,54.6,30.09,SE,130,0.0,0.0,90,0.00,CLR,SKC,0.00,0.0,WeatherDisplay:10.37,2013-01-21 08:44:00,
2013-01-21 02:49:00,57.5,54.9,30.09,SE,130,0.0,0.0,91,0.00,CLR,SKC,0.00,0.0,WeatherDisplay:10.37,2013-01-21 08:49:00,
2013-01-21 02:54:00,57.5,54.9,30.09,SE,130,0.0,0.0,91,0.00,CLR,SKC,0.00,0.0,WeatherDisplay:10.37,2013-01-21 08:54:00,
2013-01-21 02:59:00,57.5,54.9,30.10,SE,130,0.0,0.0,91,0.00,CLR,SKC,0.00,0.0,WeatherDisplay:10.37,2013-01-21 08:59:00,
2013-01-21 03:04:00,57.5,54.9,30.10,SE,130,0.0,0.0,91,0.00,CLR,SKC,0.00,0.0,WeatherDisplay:10.37,2013-01-21 09:04:00,
2013-01-21 03:09:00,57.4,54.8,30.10,SE,130,0.0,0.0,91,0.00,CLR,SKC,0.00,0.0,WeatherDisplay:10.37,2013-01-21 09:09:00,
2013-01-21 03:14:00,57.3,54.7,30.09,SE,130,0.0,0.0,91,0.00,CLR,SKC,0.00,0.0,WeatherDisplay:10.37,2013-01-21 09:14:00,
2013-01-21 03:19:00,57.2,54.6,30.09,SE,130,0.0,0.0,91,0.00,CLR,SKC,0.00,0.0,WeatherDisplay:10.37,2013-01-21 09:19:00,
2013-01-21 03:24:00,57.1,54.5,30.09,SE,130,0.0,0.0,91,0.00,CLR,SKC,0.00,0.0,WeatherDisplay:10.37,2013-01-21 09:24:00,
2013-01-21 03:29:00,57.1,54.5,30.08,SE,130,0.0,0.0,91,0.00,CLR,SKC,0.00,0.0,WeatherDisplay:10.37,2013-01-21 09:29:00,
2013-01-21 03:34:00,57.0,54.4,30.08,SE,130,0.0,0.0,91,0.00,CLR,SKC,0.00,0.0,WeatherDisplay:10.37,2013-01-21 09:34:00,
2013-01-21 03:39:00,56.9,54.6,30.08,SE,130,0.0,0.0,92,0.00,CLR,SKC,0.00,0.0,WeatherDisplay:10.37,2013-01-21 09:39:00,
2013-01-21 03:44:00,56.8,54.5,30.08,SE,130,0.0,0.0,92,0.00,CLR,SKC,0.00,0.0,WeatherDisplay:10.37,2013-01-21 09:44:00,
2013-01-21 03:49:00,56.8,54.5,30.08,SE,130,0.0,0.0,92,0.00,CLR,SKC,0.00,0.0,WeatherDisplay:10.37,2013-01-21 09:49:00,
2013-01-21 03:54:00,56.7,54.4,30.08,SE,130,0.0,0.0,92,0.00,CLR,SKC,0.00,0.0,WeatherDisplay:10.37,2013-01-21 09:54:00,
2013-01-21 03:59:00,56.6,54.3,30.08,SE,130,0.0,0.0,92,0.00,CLR,SKC,0.00,0.0,WeatherDisplay:10.37,2013-01-21 09:59:00,
2013-01-21 04:04:00,56.6,54.3,30.08,SE,130,0.0,0.0,92,0.00,CLR,SKC,0.00,0.0,WeatherDisplay:10.37,2013-01-21 10:04:00,
2013-01-21 04:09:00,56.5,54.2,30.08,SE,130,0.0,0.0,92,0.00,CLR,SKC,0.00,0.0,WeatherDisplay:10.37,2013-01-21 10:09:00,
2013-01-21 04:14:00,56.4,54.1,30.08,SE,130,0.0,0.0,92,0.00,CLR,SKC,0.00,0.0,WeatherDisplay:10.37,2013-01-21 10:14:00,
2013-01-21 04:19:00,56.3,54.0,30.08,SE,130,0.0,0.0,92,0.00,CLR,SKC,0.00,0.0,WeatherDisplay:10.37,2013-01-21 10:19:00,
2013-01-21 04:24:00,56.2,53.9,30.08,SE,130,0.0,0.0,92,0.00,CLR,SKC,0.00,0.0,WeatherDisplay:10.37,2013-01-21 10:24:00,
2013-01-21 04:29:00,56.2,54.2,30.08,SE,130,0.0,0.0,93,0.00,CLR,SKC,0.00,0.0,WeatherDisplay:10.37,2013-01-21 10:29:00,
2013-01-21 04:34:00,56.2,54.2,30.08,SE,130,0.0,0.0,93,0.00,CLR,SKC,0.00,0.0,WeatherDisplay:10.37,2013-01-21 10:34:00,
2013-01-21 04:39:00,56.2,54.2,30.08,SE,130,0.0,0.0,93,0.00,CLR,SKC,0.00,0.0,WeatherDisplay:10.37,2013-01-21 10:39:00,
2013-01-21 04:44:00,56.2,54.2,30.08,SE,130,0.0,0.0,93,0.00,CLR,SKC,0.00,0.0,WeatherDisplay:10.37,2013-01-21 10:44:00,
2013-01-21 04:49:00,56.1,54.1,30.08,SE,130,0.0,0.0,93,0.00,CLR,SKC,0.00,0.0,WeatherDisplay:10.37,2013-01-21 10:49:00,
2013-01-21 04:54:00,56.0,54.0,30.08,SE,130,0.0,0.0,93,0.00,CLR,SKC,0.00,0.0,WeatherDisplay:10.37,2013-01-21 10:54:00,
2013-01-21 04:59:00,56.0,54.0,30.08,SE,130,0.0,0.0,93,0.00,CLR,SKC,0.00,0.0,WeatherDisplay:10.37,2013-01-21 10:59:00,
2013-01-21 05:04:00,56.0,54.0,30.08,SE,130,0.0,0.0,93,0.00,CLR,SKC,0.00,0.0,WeatherDisplay:10.37,2013-01-21 11:04:00,
2013-01-21 05:09:00,55.9,53.9,30.08,SE,130,0.0,0.0,93,0.00,CLR,SKC,0.00,0.0,WeatherDisplay:10.37,2013-01-21 11:09:00,
2013-01-21 05:14:00,55.9,53.9,30.08,SE,130,0.0,0.0,93,0.00,CLR,SKC,0.00,0.0,WeatherDisplay:10.37,2013-01-21 11:14:00,
2013-01-21 05:19:00,55.9,54.2,30.08,SE,130,0.0,0.0,94,0.00,CLR,SKC,0.00,0.0,WeatherDisplay:10.37,2013-01-21 11:19:00,
2013-01-21 05:24:00,55.9,54.2,30.08,SE,130,0.0,0.0,94,0.00,CLR,SKC,0.00,0.0,WeatherDisplay:10.37,2013-01-21 11:24:00,
2013-01-21 05:29:00,56.0,54.3,30.08,SE,130,0.0,0.0,94,0.00,CLR,SKC,0.00,0.0,WeatherDisplay:10.37,2013-01-21 11:29:00,
2013-01-21 05:34:00,56.0,54.3,30.08,SE,130,0.0,0.0,94,0.00,CLR,SKC,0.00,0.0,WeatherDisplay:10.37,2013-01-21 11:34:00,
2013-01-21 05:39:00,56.1,54.4,30.08,East,91,0.0,0.0,94,0.00,CLR,SKC,0.00,0.0,WeatherDisplay:10.37,2013-01-21 11:39:00,
2013-01-21 05:44:00,56.1,54.4,30.08,East,91,0.0,0.0,94,0.00,CLR,SKC,0.00,0.0,WeatherDisplay:10.37,2013-01-21 11:44:00,
2013-01-21 05:49:00,56.1,54.4,30.08,East,91,0.0,0.0,94,0.00,CLR,SKC,0.00,0.0,WeatherDisplay:10.37,2013-01-21 11:49:00,
2013-01-21 05:54:00,56.1,54.4,30.08,East,91,0.0,0.0,94,0.00,CLR,SKC,0.00,0.0,WeatherDisplay:10.37,2013-01-21 11:54:00,
2013-01-21 05:59:00,56.1,54.4,30.09,East,91,0.0,0.0,94,0.00,CLR,SKC,0.00,0.0,WeatherDisplay:10.37,2013-01-21 11:59:00,
2013-01-21 06:04:00,56.1,54.4,30.09,East,91,0.0,0.0,94,0.00,CLR,SKC,0.00,0.0,WeatherDisplay:10.37,2013-01-21 12:04:00,
2013-01-21 06:09:00,56.1,54.4,30.09,East,91,0.0,0.0,94,0.00,CLR,SKC,0.00,0.0,WeatherDisplay:10.37,2013-01-21 12:09:00,
2013-01-21 06:14:00,56.1,54.4,30.09,East,91,0.0,0.0,94,0.00,CLR,SKC,0.00,0.0,WeatherDisplay:10.37,2013-01-21 12:14:00,
2013-01-21 06:19:00,56.1,54.4,30.09,East,91,0.0,0.0,94,0.00,CLR,SKC,0.00,0.0,WeatherDisplay:10.37,2013-01-21 12:19:00,
2013-01-21 06:24:00,56.0,54.3,30.09,East,91,0.0,0.0,94,0.00,CLR,SKC,0.00,0.0,WeatherDisplay:10.37,2013-01-21 12:24:00,
2013-01-21 06:29:00,56.0,54.3,30.09,East,91,0.0,0.0,94,0.00,CLR,SKC,0.00,0.0,WeatherDisplay:10.37,2013-01-21 12:29:00,
2013-01-21 06:34:00,56.0,54.3,30.09,East,91,0.0,0.0,94,0.00,CLR,SKC,0.00,0.0,WeatherDisplay:10.37,2013-01-21 12:34:00,
2013-01-21 06:39:00,56.0,54.3,30.09,East,91,0.0,0.0,94,0.00,CLR,SKC,0.00,0.0,WeatherDisplay:10.37,2013-01-21 12:39:00,
2013-01-21 06:44:00,56.0,54.3,30.10,East,91,0.0,0.0,94,0.00,CLR,SKC,0.00,0.0,WeatherDisplay:10.37,2013-01-21 12:44:00,
2013-01-21 06:49:00,55.9,54.2,30.10,East,91,0.0,0.0,94,0.00,CLR,SKC,0.00,0.0,WeatherDisplay:10.37,2013-01-21 12:49:00,
2013-01-21 06:54:00,55.9,54.2,30.10,East,91,0.0,0.0,94,0.00,CLR,SKC,0.00,0.0,WeatherDisplay:10.37,2013-01-21 12:54:00,
2013-01-21 06:59:00,55.9,54.2,30.10,East,91,0.0,0.0,94,0.00,CLR,SKC,0.00,0.0,WeatherDisplay:10.37,2013-01-21 12:59:00,
2013-01-21 07:04:00,55.8,54.1,30.10,East,91,0.0,0.0,94,0.00,CLR,SKC,0.00,0.0,WeatherDisplay:10.37,2013-01-21 13:04:00,
2013-01-21 07:09:00,55.8,54.4,30.10,East,91,0.0,0.0,95,0.00,CLR,SKC,0.00,0.0,WeatherDisplay:10.37,2013-01-21 13:09:00,
2013-01-21 07:14:00,55.8,54.4,30.10,East,91,0.0,0.0,95,0.00,CLR,SKC,0.00,0.0,WeatherDisplay:10.37,2013-01-21 13:14:00,
2013-01-21 07:19:00,55.9,54.5,30.10,East,91,0.0,0.0,95,0.00,CLR,SKC,0.00,0.0,WeatherDisplay:10.37,2013-01-21 13:19:00,
2013-01-21 07:24:00,56.0,54.3,30.10,East,91,0.0,0.0,94,0.00,CLR,SKC,0.00,0.0,WeatherDisplay:10.37,2013-01-21 13:24:00,
2013-01-21 07:29:00,56.0,54.3,30.11,East,91,0.0,0.0,94,0.00,CLR,SKC,0.00,7.0,WeatherDisplay:10.37,2013-01-21 13:29:00,
2013-01-21 07:34:00,55.9,54.5,30.11,East,91,0.0,0.0,95,0.00,CLR,SKC,0.00,14.0,WeatherDisplay:10.37,2013-01-21 13:34:00,
2013-01-21 07:39:00,55.9,54.5,30.11,East,91,0.0,0.0,95,0.00,CLR,SKC,0.00,21.0,WeatherDisplay:10.37,2013-01-21 13:39:00,
2013-01-21 07:44:00,55.9,54.5,30.12,East,91,0.0,0.0,95,0.00,CLR,SKC,0.00,28.0,WeatherDisplay:10.37,2013-01-21 13:44:00,
2013-01-21 07:49:00,55.9,54.5,30.12,East,91,0.0,0.0,95,0.00,CLR,SKC,0.00,35.0,WeatherDisplay:10.37,2013-01-21 13:49:00,
2013-01-21 07:54:00,55.9,54.5,30.12,East,91,0.0,0.0,95,0.00,CLR,SKC,0.00,44.0,WeatherDisplay:10.37,2013-01-21 13:54:00,
2013-01-21 07:59:00,55.8,54.4,30.12,East,91,0.0,0.0,95,0.00,CLR,SKC,0.00,54.0,WeatherDisplay:10.37,2013-01-21 13:59:00,
2013-01-21 08:04:00,55.9,54.5,30.12,East,91,0.0,0.0,95,0.00,CLR,SKC,0.00,67.0,WeatherDisplay:10.37,2013-01-21 14:04:00,
2013-01-21 08:09:00,56.0,54.6,30.12,East,91,0.0,0.0,95,0.00,CLR,SKC,0.00,74.0,WeatherDisplay:10.37,2013-01-21 14:09:00,
2013-01-21 08:14:00,56.1,54.7,30.13,East,91,0.0,0.0,95,0.00,CLR,SKC,0.00,81.0,WeatherDisplay:10.37,2013-01-21 14:14:00,
2013-01-21 08:19:00,56.3,54.9,30.13,East,91,0.0,0.0,95,0.00,CLR,SKC,0.00,90.0,WeatherDisplay:10.37,2013-01-21 14:19:00,
2013-01-21 08:24:00,56.4,55.0,30.13,East,91,0.0,0.0,95,0.00,CLR,SKC,0.00,100.0,WeatherDisplay:10.37,2013-01-21 14:24:00,
2013-01-21 08:29:00,56.7,55.3,30.15,East,91,0.0,0.0,95,0.00,CLR,SKC,0.00,130.0,WeatherDisplay:10.37,2013-01-21 14:29:00,
2013-01-21 08:34:00,57.0,55.6,30.15,East,91,0.0,0.0,95,0.00,CLR,SKC,0.00,134.0,WeatherDisplay:10.37,2013-01-21 14:34:00,
2013-01-21 08:39:00,57.5,56.1,30.15,East,91,0.0,0.0,95,0.00,CLR,SKC,0.00,134.0,WeatherDisplay:10.37,2013-01-21 14:39:00,
2013-01-21 08:44:00,57.9,56.5,30.16,East,91,0.0,0.0,95,0.00,CLR,SKC,0.00,139.0,WeatherDisplay:10.37,2013-01-21 14:44:00,
2013-01-21 08:49:00,58.3,56.9,30.16,East,91,0.0,0.0,95,0.00,CLR,SKC,0.00,134.0,WeatherDisplay:10.37,2013-01-21 14:49:00,
2013-01-21 08:54:00,58.7,57.3,30.16,ENE,75,3.5,3.5,95,0.00,CLR,SKC,0.00,134.0,WeatherDisplay:10.37,2013-01-21 14:54:00,
2013-01-21 08:59:00,59.0,57.6,30.16,East,80,3.5,3.5,95,0.00,CLR,SKC,0.00,149.0,WeatherDisplay:10.37,2013-01-21 14:59:00,
2013-01-21 09:04:00,59.3,57.6,30.16,East,80,3.5,3.5,94,0.00,CLR,SKC,0.00,163.0,WeatherDisplay:10.37,2013-01-21 15:04:00,
2013-01-21 09:09:00,59.5,57.8,30.16,ENE,78,2.3,2.3,94,0.00,CLR,SKC,0.00,169.0,WeatherDisplay:10.37,2013-01-21 15:09:00,
2013-01-21 09:14:00,59.6,57.6,30.17,ENE,78,3.5,3.5,93,0.00,CLR,SKC,0.00,183.0,WeatherDisplay:10.37,2013-01-21 15:14:00,
2013-01-21 09:19:00,59.9,57.9,30.17,ENE,78,3.5,3.5,93,0.00,CLR,SKC,0.00,190.0,WeatherDisplay:10.37,2013-01-21 15:19:00,
2013-01-21 09:24:00,60.2,58.2,30.17,ENE,78,3.5,3.5,93,0.00,CLR,SKC,0.00,239.0,WeatherDisplay:10.37,2013-01-21 15:24:00,
2013-01-21 09:29:00,60.6,58.3,30.18,East,80,3.0,3.0,92,0.00,CLR,SKC,0.00,244.0,WeatherDisplay:10.37,2013-01-21 15:29:00,
2013-01-21 09:34:00,60.7,58.1,30.18,ENE,76,3.5,3.5,91,0.00,CLR,SKC,0.00,285.0,WeatherDisplay:10.37,2013-01-21 15:34:00,
2013-01-21 09:39:00,60.9,58.3,30.18,East,81,4.0,4.0,91,0.00,CLR,SKC,0.00,230.0,WeatherDisplay:10.37,2013-01-21 15:39:00,
2013-01-21 09:44:00,61.2,58.6,30.19,ENE,74,3.5,3.5,91,0.00,CLR,SKC,0.00,243.0,WeatherDisplay:10.37,2013-01-21 15:44:00,
2013-01-21 09:49:00,61.6,58.6,30.19,East,80,3.5,3.5,90,0.00,CLR,SKC,0.00,323.0,WeatherDisplay:10.37,2013-01-21 15:49:00,
2013-01-21 09:54:00,61.9,58.6,30.19,ENE,74,3.5,3.5,89,0.00,CLR,SKC,0.00,330.0,WeatherDisplay:10.37,2013-01-21 15:54:00,
2013-01-21 09:59:00,62.3,59.0,30.19,ENE,71,3.5,3.5,89,0.00,CLR,SKC,0.00,396.0,WeatherDisplay:10.37,2013-01-21 15:59:00,
2013-01-21 10:04:00,62.7,59.1,30.19,ENE,76,4.6,4.6,88,0.00,CLR,SKC,0.00,381.0,WeatherDisplay:10.37,2013-01-21 16:04:00,
2013-01-21 10:09:00,63.1,59.2,30.19,ENE,65,5.0,5.0,87,0.00,CLR,SKC,0.00,425.0,WeatherDisplay:10.37,2013-01-21 16:09:00,
2013-01-21 10:14:00,63.3,59.4,30.20,East,82,3.5,3.5,87,0.00,CLR,SKC,0.00,362.0,WeatherDisplay:10.37,2013-01-21 16:14:00,
2013-01-21 10:19:00,63.6,59.3,30.20,ENE,65,5.8,5.8,86,0.00,CLR,SKC,0.00,399.0,WeatherDisplay:10.37,2013-01-21 16:19:00,
2013-01-21 10:24:00,63.8,59.2,30.20,ENE,77,3.5,3.5,85,0.00,CLR,SKC,0.00,441.0,WeatherDisplay:10.37,2013-01-21 16:24:00,
2013-01-21 10:29:00,64.0,59.1,30.21,ENE,74,5.0,5.0,84,0.00,CLR,SKC,0.00,348.0,WeatherDisplay:10.37,2013-01-21 16:29:00,
2013-01-21 10:34:00,64.1,58.8,30.21,ENE,78,4.6,4.9,83,0.00,CLR,SKC,0.00,397.0,WeatherDisplay:10.37,2013-01-21 16:34:00,
2013-01-21 10:39:00,64.2,58.9,30.21,ENE,70,5.8,5.8,83,0.00,CLR,SKC,0.00,352.0,WeatherDisplay:10.37,2013-01-21 16:39:00,
2013-01-21 10:44:00,64.3,59.0,30.21,ENE,68,4.6,4.6,83,0.00,CLR,SKC,0.00,385.0,WeatherDisplay:10.37,2013-01-21 16:44:00,
2013-01-21 10:49:00,64.3,59.0,30.21,ESE,105,5.8,5.8,83,0.00,CLR,SKC,0.00,432.0,WeatherDisplay:10.37,2013-01-21 16:49:00,
2013-01-21 10:54:00,64.3,59.0,30.21,ENE,78,7.0,7.0,83,0.00,CLR,SKC,0.00,429.0,WeatherDisplay:10.37,2013-01-21 16:54:00,
2013-01-21 10:59:00,64.3,59.0,30.21,East,94,4.6,4.6,83,0.00,CLR,SKC,0.00,404.0,WeatherDisplay:10.37,2013-01-21 16:59:00,
2013-01-21 11:04:00,64.4,58.8,30.21,ENE,72,5.0,5.0,82,0.00,CLR,SKC,0.00,387.0,WeatherDisplay:10.37,2013-01-21 17:04:00,
2013-01-21 11:09:00,64.4,58.4,30.21,ENE,74,6.9,6.9,81,0.00,CLR,SKC,0.00,373.0,WeatherDisplay:10.37,2013-01-21 17:09:00,
2013-01-21 11:14:00,64.4,58.4,30.21,ENE,74,6.0,6.0,81,0.00,CLR,SKC,0.00,339.0,WeatherDisplay:10.37,2013-01-21 17:14:00,
2013-01-21 11:19:00,64.4,58.4,30.21,East,81,6.0,6.0,81,0.00,CLR,SKC,0.00,330.0,WeatherDisplay:10.37,2013-01-21 17:19:00,
2013-01-21 11:24:00,64.3,58.0,30.21,ENE,76,6.9,6.9,80,0.00,CLR,SKC,0.00,360.0,WeatherDisplay:10.37,2013-01-21 17:24:00,
2013-01-21 11:29:00,64.4,58.4,30.21,East,88,3.5,3.5,81,0.00,CLR,SKC,0.00,369.0,WeatherDisplay:10.37,2013-01-21 17:29:00,
2013-01-21 11:34:00,64.5,58.2,30.21,ENE,71,6.9,6.9,80,0.00,CLR,SKC,0.00,371.0,WeatherDisplay:10.37,2013-01-21 17:34:00,
2013-01-21 11:39:00,64.5,58.2,30.21,East,84,8.1,8.1,80,0.00,CLR,SKC,0.00,388.0,WeatherDisplay:10.37,2013-01-21 17:39:00,
2013-01-21 11:44:00,64.5,58.2,30.20,ENE,78,6.0,6.0,80,0.00,CLR,SKC,0.00,366.0,WeatherDisplay:10.37,2013-01-21 17:44:00,
2013-01-21 11:49:00,64.3,58.0,30.20,East,88,8.1,8.1,80,0.00,CLR,SKC,0.00,376.0,WeatherDisplay:10.37,2013-01-21 17:49:00,
2013-01-21 11:54:00,64.2,57.9,30.20,ENE,78,9.0,9.0,80,0.00,CLR,SKC,0.00,353.0,WeatherDisplay:10.37,2013-01-21 17:54:00,
2013-01-21 11:59:00,64.3,58.3,30.19,ENE,76,7.0,7.0,81,0.00,CLR,SKC,0.00,362.0,WeatherDisplay:10.37,2013-01-21 17:59:00,
2013-01-21 12:04:00,64.4,58.4,30.19,East,88,4.6,4.6,81,0.00,CLR,SKC,0.00,367.0,WeatherDisplay:10.37,2013-01-21 18:04:00,
2013-01-21 12:09:00,64.4,58.1,30.19,ENE,74,6.9,6.9,80,0.00,CLR,SKC,0.00,366.0,WeatherDisplay:10.37,2013-01-21 18:09:00,
2013-01-21 12:14:00,64.3,58.0,30.18,East,85,10.4,10.4,80,0.00,CLR,SKC,0.00,362.0,WeatherDisplay:10.37,2013-01-21 18:14:00,
2013-01-21 12:19:00,64.1,58.1,30.18,ENE,76,10.4,10.4,81,0.00,CLR,SKC,0.00,373.0,WeatherDisplay:10.37,2013-01-21 18:19:00,
2013-01-21 12:24:00,64.1,58.1,30.18,ENE,68,8.1,8.1,81,0.00,CLR,SKC,0.00,357.0,WeatherDisplay:10.37,2013-01-21 18:24:00,
2013-01-21 12:29:00,64.1,58.1,30.17,East,85,9.2,9.2,81,0.00,CLR,SKC,0.00,362.0,WeatherDisplay:10.37,2013-01-21 18:29:00,
2013-01-21 12:34:00,64.1,58.1,30.17,ENE,78,9.2,9.2,81,0.00,CLR,SKC,0.00,339.0,WeatherDisplay:10.37,2013-01-21 18:34:00,
2013-01-21 12:39:00,64.1,58.1,30.17,ENE,68,6.9,6.9,81,0.00,CLR,SKC,0.00,334.0,WeatherDisplay:10.37,2013-01-21 18:39:00,
2013-01-21 12:44:00,64.3,58.0,30.17,East,100,5.8,5.8,80,0.00,CLR,SKC,0.00,323.0,WeatherDisplay:10.37,2013-01-21 18:44:00,
2013-01-21 12:49:00,64.2,57.9,30.17,ENE,69,9.2,9.2,80,0.00,CLR,SKC,0.00,339.0,WeatherDisplay:10.37,2013-01-21 18:49:00,
2013-01-21 12:54:00,64.1,58.1,30.17,ENE,69,6.9,6.9,81,0.00,CLR,SKC,0.00,371.0,WeatherDisplay:10.37,2013-01-21 18:54:00,
2013-01-21 12:59:00,63.9,58.0,30.16,East,90,8.1,8.1,81,0.00,CLR,SKC,0.00,410.0,WeatherDisplay:10.37,2013-01-21 18:59:00,
2013-01-21 13:04:00,63.8,57.9,30.16,ENE,69,9.2,9.2,81,0.00,CLR,SKC,0.00,490.0,WeatherDisplay:10.37,2013-01-21 19:04:00,
2013-01-21 13:10:00,64.0,58.4,30.16,East,84,7.0,7.0,82,0.00,CLR,SKC,0.00,466.0,WeatherDisplay:10.37,2013-01-21 19:10:00,
2013-01-21 13:15:00,64.3,58.0,30.15,East,83,10.4,10.4,80,0.00,CLR,SKC,0.00,490.0,WeatherDisplay:10.37,2013-01-21 19:15:00,
2013-01-21 13:20:00,64.6,58.3,30.15,ENE,67,8.1,8.1,80,0.00,CLR,SKC,0.00,680.0,WeatherDisplay:10.37,2013-01-21 19:20:00,
2013-01-21 13:25:00,64.7,58.4,30.15,ENE,63,8.1,8.1,80,0.00,CLR,SKC,0.00,710.0,WeatherDisplay:10.37,2013-01-21 19:25:00,
2013-01-21 13:30:00,64.9,58.2,30.15,ENE,62,5.8,5.8,79,0.00,CLR,SKC,0.00,570.0,WeatherDisplay:10.37,2013-01-21 19:30:00,
2013-01-21 13:35:00,65.0,58.3,30.15,ENE,57,5.8,5.8,79,0.00,CLR,SKC,0.00,492.0,WeatherDisplay:10.37,2013-01-21 19:35:00,
2013-01-21 13:40:00,65.2,58.2,30.15,East,92,9.2,9.2,78,0.00,CLR,SKC,0.00,448.0,WeatherDisplay:10.37,2013-01-21 19:40:00,
2013-01-21 13:45:00,64.9,58.2,30.14,ENE,77,10.4,10.4,79,0.00,CLR,SKC,0.00,401.0,WeatherDisplay:10.37,2013-01-21 19:45:00,
2013-01-21 13:50:00,64.8,58.1,30.14,ENE,66,10.4,10.4,79,0.00,CLR,SKC,0.00,473.0,WeatherDisplay:10.37,2013-01-21 19:50:00,
2013-01-21 13:55:00,64.7,58.0,30.14,ENE,64,10.4,10.4,79,0.00,CLR,SKC,0.00,478.0,WeatherDisplay:10.37,2013-01-21 19:55:00,
2013-01-21 14:00:00,64.7,58.0,30.14,ENE,70,10.4,10.4,79,0.00,CLR,SKC,0.00,529.0,WeatherDisplay:10.37,2013-01-21 20:00:00,
2013-01-21 14:05:00,64.8,58.1,30.14,ENE,78,10.4,10.4,79,0.00,CLR,SKC,0.00,661.0,WeatherDisplay:10.37,2013-01-21 20:05:00,
2013-01-21 14:10:00,64.9,58.2,30.14,ENE,74,10.4,10.4,79,0.00,CLR,SKC,0.00,489.0,WeatherDisplay:10.37,2013-01-21 20:10:00,
2013-01-21 14:15:00,64.9,58.2,30.13,East,86,9.2,9.2,79,0.00,CLR,SKC,0.00,483.0,WeatherDisplay:10.37,2013-01-21 20:15:00,
2013-01-21 14:20:00,64.8,58.1,30.13,ENE,67,10.4,10.4,79,0.00,CLR,SKC,0.00,468.0,WeatherDisplay:10.37,2013-01-21 20:20:00,
2013-01-21 14:25:00,64.6,58.3,30.13,ENE,74,10.4,10.4,80,0.00,CLR,SKC,0.00,406.0,WeatherDisplay:10.37,2013-01-21 20:25:00,
2013-01-21 14:30:00,64.6,58.3,30.13,East,84,11.5,11.5,80,0.00,CLR,SKC,0.00,374.0,WeatherDisplay:10.37,2013-01-21 20:30:00,
2013-01-21 14:35:00,64.6,58.3,30.13,East,84,9.2,9.2,80,0.00,CLR,SKC,0.00,397.0,WeatherDisplay:10.37,2013-01-21 20:35:00,
2013-01-21 14:40:00,64.5,58.2,30.13,East,94,9.2,9.2,80,0.00,CLR,SKC,0.00,336.0,WeatherDisplay:10.37,2013-01-21 20:40:00,
2013-01-21 14:45:00,64.5,58.5,30.13,East,90,9.2,9.2,81,0.00,CLR,SKC,0.00,355.0,WeatherDisplay:10.37,2013-01-21 20:45:00,
2013-01-21 14:50:00,64.3,58.7,30.13,East,80,9.0,9.0,82,0.00,CLR,SKC,0.00,350.0,WeatherDisplay:10.37,2013-01-21 20:50:00,
2013-01-21 14:55:00,64.2,58.6,30.13,East,94,9.2,9.2,82,0.00,CLR,SKC,0.00,287.0,WeatherDisplay:10.37,2013-01-21 20:55:00,
2013-01-21 15:00:00,64.3,59.0,30.13,ENE,65,6.9,6.9,83,0.00,CLR,SKC,0.00,334.0,WeatherDisplay:10.37,2013-01-21 21:00:00,
2013-01-21 15:05:00,64.0,58.4,30.13,ENE,75,10.4,10.4,82,0.00,CLR,SKC,0.00,352.0,WeatherDisplay:10.37,2013-01-21 21:05:00,
2013-01-21 15:10:00,63.8,58.5,30.13,ENE,66,9.2,9.2,83,0.00,CLR,SKC,0.00,376.0,WeatherDisplay:10.37,2013-01-21 21:10:00,
2013-01-21 15:15:00,63.9,58.6,30.13,East,82,6.9,6.9,83,0.00,CLR,SKC,0.00,255.0,WeatherDisplay:10.37,2013-01-21 21:15:00,
2013-01-21 15:20:00,64.2,58.6,30.13,ENE,76,8.0,8.0,82,0.00,CLR,SKC,0.00,281.0,WeatherDisplay:10.37,2013-01-21 21:20:00,
2013-01-21 15:25:00,64.1,58.8,30.13,East,92,6.9,6.9,83,0.00,CLR,SKC,0.00,302.0,WeatherDisplay:10.37,2013-01-21 21:25:00,
2013-01-21 15:30:00,64.0,58.7,30.13,ENE,74,6.9,6.9,83,0.00,CLR,SKC,0.00,297.0,WeatherDisplay:10.37,2013-01-21 21:30:00,
2013-01-21 15:35:00,64.0,58.4,30.13,ENE,78,6.9,6.9,82,0.00,CLR,SKC,0.00,246.0,WeatherDisplay:10.37,2013-01-21 21:35:00,
2013-01-21 15:40:00,64.0,58.7,30.13,ENE,76,5.0,5.9,83,0.00,CLR,SKC,0.00,202.0,WeatherDisplay:10.37,2013-01-21 21:40:00,
2013-01-21 15:45:00,63.9,58.6,30.12,ENE,70,7.0,7.0,83,0.00,CLR,SKC,0.00,216.0,WeatherDisplay:10.37,2013-01-21 21:45:00,
2013-01-21 15:50:00,63.7,58.4,30.12,ENE,77,6.9,6.9,83,0.00,CLR,SKC,0.00,211.0,WeatherDisplay:10.37,2013-01-21 21:50:00,
2013-01-21 15:55:00,63.6,58.3,30.12,ENE,71,11.5,11.5,83,0.00,CLR,SKC,0.00,306.0,WeatherDisplay:10.37,2013-01-21 21:55:00,
2013-01-21 16:00:00,63.6,58.3,30.12,ENE,76,6.9,6.9,83,0.00,CLR,SKC,0.00,350.0,WeatherDisplay:10.37,2013-01-21 22:00:00,
2013-01-21 16:05:00,63.8,58.2,30.12,East,82,9.0,9.0,82,0.00,CLR,SKC,0.00,257.0,WeatherDisplay:10.37,2013-01-21 22:05:00,
2013-01-21 16:10:00,63.8,58.2,30.12,ENE,76,8.1,8.1,82,0.00,CLR,SKC,0.00,200.0,WeatherDisplay:10.37,2013-01-21 22:10:00,
2013-01-21 16:15:00,63.8,58.2,30.13,East,82,5.8,5.8,82,0.00,CLR,SKC,0.00,327.0,WeatherDisplay:10.37,2013-01-21 22:15:00,
2013-01-21 16:20:00,63.9,58.0,30.13,ENE,73,5.0,5.2,81,0.00,CLR,SKC,0.00,343.0,WeatherDisplay:10.37,2013-01-21 22:20:00,
2013-01-21 16:25:00,64.1,57.8,30.13,ENE,73,8.1,8.1,80,0.00,CLR,SKC,0.00,308.0,WeatherDisplay:10.37,2013-01-21 22:25:00,
2013-01-21 16:30:00,63.9,57.6,30.13,ENE,58,10.4,10.4,80,0.00,CLR,SKC,0.00,246.0,WeatherDisplay:10.37,2013-01-21 22:30:00,
2013-01-21 16:35:00,63.7,57.8,30.13,ENE,75,10.4,10.4,81,0.00,CLR,SKC,0.00,269.0,WeatherDisplay:10.37,2013-01-21 22:35:00,
2013-01-21 16:40:00,63.7,57.8,30.13,ENE,65,9.0,9.0,81,0.00,CLR,SKC,0.00,262.0,WeatherDisplay:10.37,2013-01-21 22:40:00,
2013-01-21 16:45:00,63.7,57.8,30.13,ENE,78,6.9,6.9,81,0.00,CLR,SKC,0.00,216.0,WeatherDisplay:10.37,2013-01-21 22:45:00,
2013-01-21 16:50:00,63.5,57.9,30.13,East,90,9.2,9.2,82,0.00,CLR,SKC,0.00,204.0,WeatherDisplay:10.37,2013-01-21 22:50:00,
2013-01-21 16:55:00,63.3,57.7,30.13,ENE,68,9.2,9.2,82,0.00,CLR,SKC,0.00,123.0,WeatherDisplay:10.37,2013-01-21 22:55:00,
2013-01-21 17:00:00,63.2,57.6,30.13,NE,44,6.9,6.9,82,0.00,CLR,SKC,0.00,125.0,WeatherDisplay:10.37,2013-01-21 23:00:00,
2013-01-21 17:05:00,62.9,57.7,30.13,ENE,73,11.5,11.5,83,0.00,CLR,SKC,0.00,42.0,WeatherDisplay:10.37,2013-01-21 23:05:00,
2013-01-21 17:10:00,62.7,57.5,30.13,ENE,75,10.4,10.4,83,0.00,CLR,SKC,0.00,42.0,WeatherDisplay:10.37,2013-01-21 23:10:00,
2013-01-21 17:15:00,62.5,57.6,30.13,ENE,72,6.9,6.9,84,0.00,CLR,SKC,0.00,42.0,WeatherDisplay:10.37,2013-01-21 23:15:00,
2013-01-21 17:20:00,62.4,57.5,30.13,East,86,6.0,6.0,84,0.00,CLR,SKC,0.00,40.0,WeatherDisplay:10.37,2013-01-21 23:20:00,
2013-01-21 17:25:00,62.4,57.5,30.13,NE,55,8.1,8.1,84,0.00,CLR,SKC,0.00,35.0,WeatherDisplay:10.37,2013-01-21 23:25:00,
2013-01-21 17:30:00,62.3,57.7,30.12,ENE,71,7.0,7.0,85,0.00,CLR,SKC,0.00,30.0,WeatherDisplay:10.37,2013-01-21 23:30:00,
2013-01-21 17:35:00,62.2,57.6,30.12,ENE,67,10.4,10.4,85,0.00,CLR,SKC,0.00,28.0,WeatherDisplay:10.37,2013-01-21 23:35:00,
2013-01-21 17:40:00,62.1,57.5,30.12,ENE,57,8.1,8.1,85,0.00,CLR,SKC,0.00,26.0,WeatherDisplay:10.37,2013-01-21 23:40:00,
2013-01-21 17:45:00,61.9,57.3,30.12,NE,55,6.9,7.1,85,0.00,CLR,SKC,0.00,21.0,WeatherDisplay:10.37,2013-01-21 23:45:00,
2013-01-21 17:50:00,61.8,57.6,30.12,ENE,69,6.9,6.9,86,0.00,CLR,SKC,0.00,16.0,WeatherDisplay:10.37,2013-01-21 23:50:00,
2013-01-21 17:55:00,61.6,57.4,30.12,ENE,62,6.9,6.9,86,0.00,CLR,SKC,0.00,11.0,WeatherDisplay:10.37,2013-01-21 23:55:00,
2013-01-21 18:00:00,61.4,57.2,30.12,ENE,63,6.0,6.0,86,0.00,CLR,SKC,0.00,7.0,WeatherDisplay:10.37,2013-01-22 00:00:00,
2013-01-21 18:05:00,61.2,57.3,30.12,ENE,67,4.6,4.6,87,0.00,CLR,SKC,0.00,5.0,WeatherDisplay:10.37,2013-01-22 00:05:00,
2013-01-21 18:10:00,61.0,57.1,30.12,ENE,65,4.6,4.6,87,0.00,CLR,SKC,0.00,0.0,WeatherDisplay:10.37,2013-01-22 00:10:00,
2013-01-21 18:15:00,60.9,57.3,30.13,ENE,61,5.8,5.8,88,0.00,CLR,SKC,0.00,0.0,WeatherDisplay:10.37,2013-01-22 00:15:00,
2013-01-21 18:20:00,60.8,57.2,30.13,ENE,67,5.0,5.0,88,0.00,CLR,SKC,0.00,0.0,WeatherDisplay:10.37,2013-01-22 00:20:00,
2013-01-21 18:25:00,60.7,57.4,30.13,ENE,65,6.0,6.0,89,0.00,SCT,SKC,0.00,0.0,WeatherDisplay:10.37,2013-01-22 00:25:00,
2013-01-21 18:30:00,60.5,57.2,30.13,ENE,61,4.6,4.6,89,0.00,SCT,SKC,0.00,0.0,WeatherDisplay:10.37,2013-01-22 00:30:00,
2013-01-21 18:35:00,60.3,57.4,30.13,ENE,60,4.6,4.6,90,0.00,CLR,SKC,0.00,0.0,WeatherDisplay:10.37,2013-01-22 00:35:00,
2013-01-21 18:40:00,60.0,57.1,30.13,ENE,62,4.6,4.6,90,0.00,CLR,SKC,0.00,0.0,WeatherDisplay:10.37,2013-01-22 00:40:00,
2013-01-21 18:45:00,59.8,57.2,30.13,ENE,57,5.8,5.8,91,0.00,CLR,SKC,0.00,0.0,WeatherDisplay:10.37,2013-01-22 00:45:00,
2013-01-21 18:50:00,59.5,56.9,30.13,ENE,57,4.6,4.6,91,0.00,CLR,SKC,0.00,0.0,WeatherDisplay:10.37,2013-01-22 00:50:00,
2013-01-21 18:55:00,59.4,56.8,30.13,ENE,58,3.5,3.5,91,0.00,CLR,SKC,0.00,0.0,WeatherDisplay:10.37,2013-01-22 00:55:00,
2013-01-21 19:00:00,59.3,56.7,30.14,ENE,59,3.5,3.5,91,0.00,CLR,SKC,0.00,0.0,WeatherDisplay:10.37,2013-01-22 01:00:00,
2013-01-21 19:05:00,59.1,56.5,30.14,ENE,60,3.5,3.5,91,0.00,CLR,SKC,0.00,0.0,WeatherDisplay:10.37,2013-01-22 01:05:00,
2013-01-21 19:10:00,59.1,56.5,30.14,ENE,65,4.0,4.0,91,0.00,CLR,SKC,0.00,0.0,WeatherDisplay:10.37,2013-01-22 01:10:00,
2013-01-21 19:15:00,59.1,56.5,30.14,ENE,59,4.6,4.6,91,0.00,CLR,SKC,0.00,0.0,WeatherDisplay:10.37,2013-01-22 01:15:00,
2013-01-21 19:20:00,59.0,56.4,30.14,NE,51,3.5,3.5,91,0.00,CLR,SKC,0.00,0.0,WeatherDisplay:10.37,2013-01-22 01:20:00,
2013-01-21 19:25:00,58.9,56.3,30.14,ENE,58,3.5,3.5,91,0.00,CLR,SKC,0.00,0.0,WeatherDisplay:10.37,2013-01-22 01:25:00,
2013-01-21 19:30:00,58.8,56.2,30.15,ENE,65,4.0,4.0,91,0.00,CLR,SKC,0.00,0.0,WeatherDisplay:10.37,2013-01-22 01:30:00,
2013-01-21 19:35:00,58.7,56.1,30.15,ENE,57,3.5,3.5,91,0.00,CLR,SKC,0.00,0.0,WeatherDisplay:10.37,2013-01-22 01:35:00,
2013-01-21 19:40:00,58.5,55.9,30.15,ENE,60,3.5,3.5,91,0.00,CLR,SKC,0.00,0.0,WeatherDisplay:10.37,2013-01-22 01:40:00,
2013-01-21 19:45:00,58.4,55.8,30.15,NE,55,3.5,3.5,91,0.00,CLR,SKC,0.00,0.0,WeatherDisplay:10.37,2013-01-22 01:45:00,
2013-01-21 19:50:00,58.2,55.6,30.15,NE,53,4.6,4.6,91,0.00,CLR,SKC,0.00,0.0,WeatherDisplay:10.37,2013-01-22 01:50:00,
2013-01-21 19:55:00,58.0,55.7,30.15,ENE,60,3.5,3.5,92,0.00,CLR,SKC,0.00,0.0,WeatherDisplay:10.37,2013-01-22 01:55:00,
2013-01-21 20:00:00,57.9,55.3,30.16,ENE,64,3.5,3.5,91,0.00,CLR,SKC,0.00,0.0,WeatherDisplay:10.37,2013-01-22 02:00:00,
2013-01-21 20:05:00,57.7,55.4,30.16,NE,55,3.5,3.5,92,0.00,CLR,SKC,0.00,0.0,WeatherDisplay:10.37,2013-01-22 02:05:00,
2013-01-21 20:10:00,57.6,55.3,30.16,ENE,59,3.5,3.5,92,0.00,CLR,SKC,0.00,0.0,WeatherDisplay:10.37,2013-01-22 02:10:00,
2013-01-21 20:15:00,57.5,55.2,30.16,ENE,58,3.5,3.5,92,0.00,CLR,SKC,0.00,0.0,WeatherDisplay:10.37,2013-01-22 02:15:00,
2013-01-21 20:20:00,57.4,55.1,30.16,ENE,64,3.5,3.5,92,0.00,CLR,SKC,0.00,0.0,WeatherDisplay:10.37,2013-01-22 02:20:00,
2013-01-21 20:25:00,57.3,55.0,30.16,ENE,61,3.5,3.5,92,0.00,CLR,SKC,0.00,0.0,WeatherDisplay:10.37,2013-01-22 02:25:00,
2013-01-21 20:30:00,57.4,55.1,30.16,ENE,61,3.5,3.5,92,0.00,CLR,SKC,0.00,0.0,WeatherDisplay:10.37,2013-01-22 02:30:00,
2013-01-21 20:35:00,57.5,55.2,30.16,ENE,63,4.0,4.0,92,0.00,CLR,SKC,0.00,0.0,WeatherDisplay:10.37,2013-01-22 02:35:00,
2013-01-21 20:40:00,57.6,55.3,30.16,ENE,62,3.5,3.5,92,0.00,CLR,SKC,0.00,0.0,WeatherDisplay:10.37,2013-01-22 02:40:00,
2013-01-21 20:45:00,57.7,55.4,30.16,ENE,63,3.5,3.5,92,0.00,CLR,SKC,0.00,0.0,WeatherDisplay:10.37,2013-01-22 02:45:00,
2013-01-21 20:50:00,57.9,55.6,30.16,ENE,63,3.5,3.5,92,0.00,CLR,SKC,0.00,0.0,WeatherDisplay:10.37,2013-01-22 02:50:00,
2013-01-21 20:55:00,57.9,55.6,30.16,ENE,63,3.5,3.5,92,0.00,CLR,SKC,0.00,0.0,WeatherDisplay:10.37,2013-01-22 02:55:00,
2013-01-21 21:00:00,58.0,55.4,30.17,ENE,63,3.5,3.5,91,0.00,CLR,SKC,0.00,0.0,WeatherDisplay:10.37,2013-01-22 03:00:00,
2013-01-21 21:05:00,58.1,55.5,30.17,ENE,63,3.5,3.5,91,0.00,CLR,SKC,0.00,0.0,WeatherDisplay:10.37,2013-01-22 03:05:00,
2013-01-21 21:10:00,58.2,55.6,30.17,East,90,4.0,4.0,91,0.00,CLR,SKC,0.00,0.0,WeatherDisplay:10.37,2013-01-22 03:10:00,
2013-01-21 21:15:00,58.6,56.0,30.17,ENE,69,5.8,5.8,91,0.00,CLR,SKC,0.00,0.0,WeatherDisplay:10.37,2013-01-22 03:15:00,
2013-01-21 21:20:00,59.2,56.3,30.17,ENE,76,6.9,6.9,90,0.00,BKN,SKC,0.00,0.0,WeatherDisplay:10.37,2013-01-22 03:20:00,
2013-01-21 21:25:00,59.6,56.0,30.17,East,85,5.0,5.0,88,0.00,BKN,SKC,0.00,0.0,WeatherDisplay:10.37,2013-01-22 03:25:00,
2013-01-21 21:30:00,59.8,55.9,30.17,East,79,6.9,6.9,87,0.00,BKN,SKC,0.00,0.0,WeatherDisplay:10.37,2013-01-22 03:30:00,
2013-01-21 21:35:00,59.9,56.0,30.17,ENE,70,5.8,5.8,87,0.00,BKN,SKC,0.00,0.0,WeatherDisplay:10.37,2013-01-22 03:35:00,
2013-01-21 21:40:00,59.8,55.9,30.17,East,89,6.0,6.0,87,0.00,BKN,SKC,0.00,0.0,WeatherDisplay:10.37,2013-01-22 03:40:00,
2013-01-21 21:45:00,59.7,55.8,30.17,ENE,67,6.0,6.0,87,0.00,BKN,SKC,0.00,0.0,WeatherDisplay:10.37,2013-01-22 03:45:00,
2013-01-21 21:50:00,59.8,55.9,30.17,ESE,102,5.8,5.8,87,0.00,BKN,SKC,0.00,0.0,WeatherDisplay:10.37,2013-01-22 03:50:00,
2013-01-21 21:55:00,59.8,55.9,30.17,East,89,5.8,5.8,87,0.00,BKN,SKC,0.00,0.0,WeatherDisplay:10.37,2013-01-22 03:55:00,
2013-01-21 22:00:00,59.8,55.9,30.17,East,80,5.0,5.0,87,0.00,BKN,SKC,0.00,0.0,WeatherDisplay:10.37,2013-01-22 04:00:00,
2013-01-21 22:05:00,59.8,55.9,30.17,ENE,75,5.8,5.8,87,0.00,OVC,SKC,0.00,0.0,WeatherDisplay:10.37,2013-01-22 04:05:00,
2013-01-21 22:10:00,59.8,55.9,30.17,East,88,5.0,5.0,87,0.00,OVC,SKC,0.00,0.0,WeatherDisplay:10.37,2013-01-22 04:10:00,
2013-01-21 22:15:00,59.8,55.9,30.17,East,101,5.0,5.0,87,0.00,OVC,SKC,0.00,0.0,WeatherDisplay:10.37,2013-01-22 04:15:00,
2013-01-21 22:20:00,59.7,55.8,30.17,East,100,4.6,4.6,87,0.00,OVC,SKC,0.00,0.0,WeatherDisplay:10.37,2013-01-22 04:20:00,
2013-01-21 22:25:00,59.7,55.8,30.17,ESE,104,5.8,5.8,87,0.00,OVC,SKC,0.00,0.0,WeatherDisplay:10.37,2013-01-22 04:25:00,
2013-01-21 22:30:00,59.7,55.8,30.17,East,98,3.5,3.5,87,0.00,OVC,SKC,0.00,0.0,WeatherDisplay:10.37,2013-01-22 04:30:00,
2013-01-21 22:35:00,59.6,55.7,30.17,East,85,6.0,6.0,87,0.00,OVC,SKC,0.00,0.0,WeatherDisplay:10.37,2013-01-22 04:35:00,
2013-01-21 22:40:00,59.7,55.8,30.17,East,98,5.8,5.8,87,0.00,OVC,SKC,0.00,0.0,WeatherDisplay:10.37,2013-01-22 04:40:00,
2013-01-21 22:45:00,59.7,55.5,30.17,East,91,4.6,4.6,86,0.00,OVC,SKC,0.00,0.0,WeatherDisplay:10.37,2013-01-22 04:45:00,
2013-01-21 22:50:00,59.6,55.4,30.17,East,92,4.6,4.6,86,0.00,OVC,SKC,0.00,0.0,WeatherDisplay:10.37,2013-01-22 04:50:00,
2013-01-21 22:55:00,59.6,55.4,30.17,East,82,5.8,5.8,86,0.00,OVC,SKC,0.00,0.0,WeatherDisplay:10.37,2013-01-22 04:55:00,
2013-01-21 23:00:00,59.6,55.4,30.17,ESE,105,4.6,4.6,86,0.00,OVC,SKC,0.00,0.0,WeatherDisplay:10.37,2013-01-22 05:00:00,
2013-01-21 23:01:00,59.6,55.4,30.17,East,96,3.0,5.0,86,0.00,CLR,SKC,0.00,0.0,WeatherDisplay:10.37,2013-01-22 05:01:00,
2013-01-21 23:02:00,59.5,55.3,30.17,ESE,109,4.6,4.6,86,0.00,CLR,SKC,0.00,0.0,WeatherDisplay:10.37,2013-01-22 05:02:00,
2013-01-21 23:03:00,59.5,55.3,30.17,East,89,5.8,5.8,86,0.00,CLR,SKC,0.00,0.0,WeatherDisplay:10.37,2013-01-22 05:03:00,
2013-01-21 23:08:00,59.4,55.2,30.17,East,96,4.0,4.0,86,0.00,CLR,SKC,0.00,0.0,WeatherDisplay:10.37,2013-01-22 05:08:00,
2013-01-21 23:13:00,59.2,55.3,30.17,East,94,4.6,4.6,87,0.00,CLR,SKC,0.00,0.0,WeatherDisplay:10.37,2013-01-22 05:13:00,
2013-01-21 23:18:00,59.0,55.1,30.17,East,98,3.5,3.5,87,0.00,CLR,SKC,0.00,0.0,WeatherDisplay:10.37,2013-01-22 05:18:00,
2013-01-21 23:23:00,58.9,55.0,30.17,East,101,4.0,4.0,87,0.00,CLR,SKC,0.00,0.0,WeatherDisplay:10.37,2013-01-22 05:23:00,
2013-01-21 23:28:00,58.7,54.8,30.17,East,92,3.5,3.5,87,0.00,CLR,SKC,0.00,0.0,WeatherDisplay:10.37,2013-01-22 05:28:00,
2013-01-21 23:33:00,58.6,55.1,30.17,East,92,2.3,2.3,88,0.00,CLR,SKC,0.00,0.0,WeatherDisplay:10.37,2013-01-22 05:33:00,
2013-01-21 23:38:00,58.5,55.0,30.17,East,92,2.3,2.3,88,0.00,CLR,SKC,0.00,0.0,WeatherDisplay:10.37,2013-01-22 05:38:00,
2013-01-21 23:43:00,58.5,55.0,30.17,East,92,1.1,1.1,88,0.00,CLR,SKC,0.00,0.0,WeatherDisplay:10.37,2013-01-22 05:43:00,
2013-01-21 23:48:00,58.4,54.9,30.17,East,92,3.0,3.0,88,0.00,CLR,SKC,0.00,0.0,WeatherDisplay:10.37,2013-01-22 05:48:00,
2013-01-21 23:53:00,58.3,54.8,30.17,East,92,1.1,1.1,88,0.00,CLR,SKC,0.00,0.0,WeatherDisplay:10.37,2013-01-22 05:53:00,
2013-01-21 23:58:00,58.1,54.6,30.17,East,92,2.3,2.3,88,0.00,CLR,SKC,0.00,0.0,WeatherDisplay:10.37,2013-01-22 05:58:00,